www.pogodaiklimat.ru
ПОГОДА в Подгорица-Граде
Время
(UTC), дата
19 28.11
20 28.11
21 28.11
00 29.11
03 29.11
04 29.11
05 29.11
06 29.11
07 29.11
08 29.11
09 29.11
10 29.11
11 29.11
12 29.11
13 29.11
14 29.11
15 29.11
16 29.11
17 29.11
18 29.11
19 29.11
20 29.11
21 29.11
00 30.11
03 30.11
04 30.11
05 30.11
06 30.11
07 30.11
08 30.11
09 30.11
10 30.11
11 30.11
12 30.11
13 30.11
14 30.11
15 30.11
16 30.11
17 30.11
18 30.11
19 30.11
20 30.11
21 30.11
00 1.12
03 1.12
04 1.12
05 1.12
06 1.12
07 1.12
08 1.12
10 1.12
11 1.12
12 1.12
13 1.12
14 1.12
15 1.12
16 1.12
17 1.12
18 1.12
19 1.12
20 1.12
21 1.12
00 2.12
03 2.12
04 2.12
05 2.12
06 2.12
07 2.12
08 2.12
09 2.12
10 2.12
11 2.12
12 2.12
13 2.12
14 2.12
15 2.12
16 2.12
17 2.12
18 2.12
20 2.12
21 2.12
00 3.12
03 3.12
04 3.12
05 3.12
06 3.12
07 3.12
08 3.12
09 3.12
10 3.12
11 3.12
12 3.12
13 3.12
14 3.12
15 3.12
16 3.12
17 3.12
18 3.12
19 3.12
20 3.12
21 3.12
00 4.12
03 4.12
04 4.12
05 4.12
06 4.12
07 4.12
08 4.12
09 4.12
10 4.12
11 4.12
12 4.12
14 4.12
15 4.12
16 4.12
17 4.12
18 4.12
19 4.12
20 4.12
21 4.12
00 5.12
03 5.12
04 5.12
05 5.12
06 5.12
07 5.12
08 5.12
09 5.12
10 5.12
11 5.12
12 5.12
13 5.12
14 5.12
15 5.12
16 5.12
17 5.12
18 5.12
Ветер
(напр.,м/с)
Видим. Явления Облачность Т
(С)
Тd
(С)
f
(%)
Тe
(С)
Тes
(С)
Комфортность P
(гПа)
Po
(гПа)
Тmin
(С)
Tmax
(С)
R
(мм)
R24
(мм)
S
(см)
СЗ 2 5000 м гроза, ливневой дождь 10/8 300 м
[Cb cap As op]
+13.9 +13.6 98 +13 +13 тепло 1007.3 1001.3
В 1 10 км в посл. час дождь {гроза} 9/9 600 м
[Cu Sc]
+13.4 +12.8 96 +13 +13 тепло 1007.6 1001.6
СВ 1 10 км {гроза, дождь} 9/9 600 м
[Cu Sc]
+13.0 +12.5 97 +13 +13 тепло 1007.3 1001.3
В 1 10 км слаб. дождь {гроза} 9/9 600 м
[Cu Sc]
+12.1 +11.5 96 +12 +12 тепло 1008.6 1002.6 8
С 1 15 км в посл. час дождь {гроза} 5/5 600 м
[Cu Sc]
+10.5 +9.7 95 +10 +10 тепло 1010.7 1004.6
В 1 15 км 4/4 1000 м
[Cu Sc]
+10.1 +9.7 97 +9 +9 тепло 1011.2 1005.1
З 1 18 км 5/4 1000 м
[Cu Sc Ac trans]
+9.4 +9.2 99 +9 +9 тепло 1011.7 1005.6
В 1 20 км 8/5 1000 м
[Cu Sc Ac trans]
+9.3 +9.0 98 +9 +9 тепло 1012.5 1006.4 +9.1 16
СЗ 2 20 км 9/8 1000 м
[Cu Sc Ac trans]
+9.9 +9.4 97 +8 +8 тепло 1013.0 1006.9
СЗ 2 20 км 9/6 1000 м
[Cu Sc As op]
+11.1 +9.7 91 +10 +10 тепло 1013.7 1007.7
В 2 10 км дождь 10/8 600 м
[Cu Sc As op]
+10.9 +9.8 93 +9 +10 тепло 1014.9 1008.8
В 1 20 км в посл. час дождь 9/6 1000 м
[Cu Sc As op]
+11.6 +10.6 94 +11 +12 тепло 1014.5 1008.4
З 2 20 км 8/8 1000 м
[Cu Sc]
+13.3 +11.2 87 +13 +13 тепло 1014.0 1008.0
Ю 2 20 км {дождь} 8/8 1000 м
[Cu Sc]
+14.8 +10.8 77 +15 +15 тепло 1013.7 1007.7 4
СВ 2 20 км 5/5 1000 м
[Cu Sc]
+15.3 +10.8 75 +15 +16 тепло 1013.6 1007.6
Ю 2 20 км 6/6 1000 м
[Cu Sc]
+14.4 +10.3 76 +14 +14 тепло 1013.8 1007.8
Ю 2 10 км слаб. дождь 10/10 600 м
[Cu Sc]
+13.2 +11.2 88 +12 +12 тепло 1014.3 1008.3
В 2 5000 м слаб. дождь 10/10 600 м
[Cu Sc]
+12.2 +10.8 91 +11 +11 тепло 1014.8 1008.7
СЗ 2 5000 м в посл. час дождь 10/10 600 м
[Cu Sc]
+11.7 +10.8 94 +10 +10 тепло 1014.7 1008.6
штиль 0 5000 м {дождь} 10/10 600 м
[Cu Sc]
+11.5 +10.8 95 +11 +11 тепло 1015.0 1008.9 +15.8 7
З 1 5000 м слаб. дождь 10/10 600 м
[Cu Sc]
+11.5 +10.8 95 +11 +11 тепло 1014.7 1008.6
СЗ 2 5000 м слаб. дождь 10/10 600 м
[Cu Sc]
+11.2 +10.6 96 +10 +10 тепло 1014.3 1008.2
Ю 1 5000 м дождь 10/10 600 м
[Cu Sc]
+11.2 +10.8 97 +11 +11 тепло 1013.5 1007.4
СЗ 2 3000 м дождь 10/6 600 м
[Frnb As op]
+11.0 +10.8 99 +10 +10 тепло 1011.3 1005.2 13
В 1 3000 м {гроза, дождь} 10/6 600 м
[Frnb As op]
+10.5 +10.0 97 +10 +10 тепло 1012.9 1006.8
СЗ 1 10 км {гроза, дождь} 6/6 600 м
[Cu Sc]
+9.5 +9.2 98 +9 +9 тепло 1013.1 1007.0
В 1 15 км 5/5 1000 м
[Cu Sc]
+8.5 +8.3 99 +8 +8 тепло 1013.8 1007.7
В 1 20 км {гроза, дождь} 3/3 1000 м
[Cu med, cong]
+8.3 +8.3 100 +7 +7 тепло 1014.5 1008.4 +8.3 19
В 1 20 км 1/1 1000 м
[Cu med, cong]
+8.6 +8.6 100 +8 +8 тепло 1015.1 1009.0
С 2 20 км 4/1 1000 м
[Cu med, cong Ac trans]
+11.3 +10.5 95 +10 +11 тепло 1015.6 1009.5
С 2 20 км 3/1 1000 м
[Cu med, cong Ac trans]
+14.5 +9.2 70 +14 +16 тепло 1016.0 1010.0
С 3 20 км 3/1 1000 м
[Cu med, cong Ac trans]
+15.9 +5.6 50 +16 +18 тепло 1016.5 1010.5
СВ 5
{18}
20 км 4/1 1000 м
[Cu med, cong Ac trans]
+15.7 +2.3 40 +15 +16 тепло 1016.8 1010.8
С 5
{17}
20 км 4/1 1000 м
[Cu med, cong Ac trans]
+15.3 +0.9 38 +14 +16 тепло 1017.0 1011.0
С 5
{13}
20 км 3/1 1000 м
[Cu med, cong Ac trans]
+15.2 +1.2 39 +14 +15 тепло 1017.2 1011.2
В 5
{16}
20 км 5/1 1000 м
[Cu med, cong Ac trans]
+14.2 +0.6 39 +13 +13 тепло 1017.9 1011.9
С 5
{15}
20 км 4/1 1000 м
[Cu med, cong Ac trans]
+12.7 +0.1 42 +11 +11 тепло 1019.0 1012.9
С 5
{15}
20 км 3/0
[Ac trans]
+11.9 -0.9 41 +10 +10 тепло 1019.7 1013.6
С 5
{13}
20 км ясно +11.3 -1.2 42 +9 +9 тепло 1020.7 1014.6
С 5
{13}
20 км ясно +10.9 -1.5 42 +9 +9 тепло 1021.9 1015.8 +16.0
С 4
{11}
20 км ясно +10.4 -1.2 44 +8 +8 тепло 1022.6 1016.5
С 4 20 км ясно +10.1 -1.5 44 +8 +8 тепло 1023.2 1017.0
С 4
{11}
20 км ясно +10.0 -2.2 42 +8 +8 тепло 1023.3 1017.1
С 2 20 км ясно +7.1 -1.9 53 +5 +5 тепло 1024.0 1017.8
С 3 20 км ясно +6.4 -5.3 43 +4 +4 по сезону 1024.7 1018.5
С 4 20 км ясно +6.4 -0.6 61 +3 +3 по сезону 1024.8 1018.6
С 2 20 км ясно +6.5 -6.1 40 +5 +5 тепло 1025.1 1018.9
С 4
{13}
20 км ясно +7.1 -7.1 36 +4 +4 по сезону 1025.3 1019.1 +4.5
СЗ 1 20 км ясно +4.5 -3.3 57 +4 +4 по сезону 1026.2 1019.9
З 1 20 км ясно +7.4 -2.9 48 +7 +9 тепло 1026.4 1020.2
В 1 20 км ясно +11.2 -4.8 32 +12 +16 тепло 1026.1 1020.0
З 1 20 км 1/1 1000 м
[Cu hum]
+12.0 -5.3 29 +13 +17 тепло 1025.4 1019.3
Ю 1 20 км 1/1 1000 м
[Cu hum]
+12.9 -5.7 27 +14 +17 тепло 1024.7 1018.6
ЮЗ 2 20 км 4/0
[Ci sp]
+13.5 -5.3 27 +13 +15 тепло 1024.2 1018.1
Ю 3 20 км 4/0
[Ci sp]
+11.6 -4.0 33 +10 +11 тепло 1024.4 1018.3
ЮЗ 1 20 км 4/0
[Ci sp]
+10.7 -2.9 38 +11 +11 тепло 1024.5 1018.4
В 1 20 км 4/0
[Ci sp]
+7.9 -1.2 53 +8 +8 тепло 1024.8 1018.6
ЮЗ 1 20 км 3/0
[Ci sp]
+6.6 -0.6 60 +6 +6 тепло 1025.0 1018.8
В 1 20 км ясно +5.5 +0.1 68 +5 +5 тепло 1025.4 1019.1 +13.6
СЗ 1 20 км ясно +5.2 +0.6 72 +4 +4 по сезону 1025.8 1019.5
штиль 0 20 км ясно +4.5 +0.1 73 +4 +4 по сезону 1025.7 1019.4
ЮВ 1 20 км ясно +4.3 +0.1 74 +3 +3 по сезону 1025.6 1019.3
штиль 0 20 км 4/0
[Ac trans]
+3.4 +0.1 79 +3 +3 по сезону 1025.6 1019.3
З 1 20 км 8/3 1000 м
[Sc diur, vesp Ac As]
+9.1 +0.9 56 +9 +9 тепло 1025.2 1018.9
З 1 20 км 8/3 1000 м
[Sc diur, vesp Ac As]
+5.5 +1.5 75 +4 +4 по сезону 1024.5 1018.2
З 1 20 км 8/3 1000 м
[Sc diur, vesp Ac As]
+4.5 +1.5 81 +3 +3 по сезону 1024.6 1018.3
З 1 20 км 9/3 1000 м
[Sc Ac As]
+5.1 +0.9 74 +4 +4 по сезону 1024.5 1018.2 +3.3
Ю 1 20 км 8/3 1000 м
[Sc Ac As]
+6.1 +1.2 71 +5 +5 тепло 1024.6 1018.4
В 2 20 км 8/3 1000 м
[Sc Ac As]
+9.1 +0.9 56 +8 +8 тепло 1024.2 1018.0
Ю 1 20 км 9/5 1000 м
[Cu Sc Ac As]
+10.5 +0.1 48 +11 +11 тепло 1024.6 1018.4
З 1 20 км 10/10 1000 м
[Cu Sc]
+10.5 +0.9 51 +11 +11 тепло 1023.9 1017.8
С 1 20 км 10/10 1000 м
[Cu Sc]
+10.1 +2.0 57 +10 +10 тепло 1023.2 1017.1
З 1 20 км 10/10 1000 м
[Cu Sc]
+10.9 +1.8 53 +11 +11 тепло 1022.6 1016.6
З 1 15 км 9/9 1000 м
[Cu Sc]
+10.9 +2.3 55 +11 +11 тепло 1022.2 1016.0
СЗ 1 15 км 9/9 1000 м
[Cu Sc]
+10.4 +2.8 59 +10 +10 тепло 1021.5 1015.4
СЗ 1 10 км в посл. час дождь 10/8 600 м
[Cu Sc As op]
+10.4 +2.8 59 +10 +10 тепло 1021.5 1015.4
СЗ 1 10 км в посл. час дождь 10/8 1000 м
[Cu Sc As op]
+9.5 +4.0 69 +9 +9 тепло 1021.1 1014.9
В 2 10 км в посл. час дождь 10/6 600 м
[Cu Sc As op]
+9.2 +4.5 72 +8 +8 тепло 1020.9 1014.7
З 1 10 км {дождь} 10/8 600 м
[Cu Sc As op]
+9.2 +5.3 77 +9 +9 тепло 1020.7 1014.5 +11.0 0.0
ЮЗ 1 7000 м слаб. дождь 10/6 600 м
[Frnb As op]
+9.1 +7.4 89 +8 +8 тепло 1020.6 1014.4
ЮЗ 1 7000 м слаб. дождь 10/6 600 м
[Cu Sc As op]
+8.8 +8.1 95 +8 +8 тепло 1020.8 1014.6
СЗ 1 3000 м слаб. дождь 10/8 200 м
[Frnb As op]
+8.6 +8.3 98 +8 +8 тепло 1019.9 1013.7 7
В 1 5000 м слаб. дождь 10/6 300 м
[Cu Sc As op]
+9.7 +9.6 99 +9 +9 тепло 1018.9 1012.8
В 1 7000 м слаб. дождь 10/6 300 м
[Cu Sc As op]
+9.7 +9.4 98 +9 +9 тепло 1018.7 1012.6
С 1 10 км слаб. дождь 10/6 600 м
[Cu Sc As op]
+9.9 +9.0 94 +9 +9 тепло 1018.8 1012.4
С 2 20 км слаб. дождь 10/8 1000 м
[Cu Sc As op]
+9.8 +8.5 92 +8 +8 тепло 1019.1 1013.0 +8.6 18
С 4 5000 м дождь 10/8 600 м
[Frnb As op]
+9.0 +6.8 86 +6 +6 тепло 1019.5 1013.3
С 5
{11}
10 км дождь 10/8 600 м
[Frnb As op]
+8.5 +5.3 80 +5 +5 тепло 1020.3 1014.0
С 5
{14}
15 км слаб. дождь 10/8 600 м
[Frnb As op]
+7.7 +3.8 76 +4 +4 по сезону 1021.0 1014.7
С 5
{19}
20 км слаб. дождь 10/8 600 м
[Cu Sc As op]
+8.2 +2.0 65 +5 +5 тепло 1021.3 1015.1
С 5
{17}
20 км слаб. дождь 10/8 1000 м
[Cu Sc As op]
+8.8 +1.5 60 +6 +6 тепло 1021.3 1015.1
С 4
{19}
20 км слаб. дождь 10/8 1000 м
[Cu Sc As op]
+7.4 +2.5 71 +4 +4 по сезону 1021.4 1015.1 7
С 3 5000 м слаб. дождь 10/6 600 м
[Frnb As op]
+7.9 +4.9 81 +5 +5 тепло 1021.1 1014.9
В 1 5000 м слаб. дождь 10/6 600 м
[Frnb As op]
+7.7 +6.0 89 +7 +7 тепло 1021.5 1015.3
В 2 5000 м {дождь} 10/6 600 м
[Cu Sc As op]
+7.3 +2.5 72 +5 +5 тепло 1021.4 1015.2
С 2 5000 м слаб. дождь 10/6 600 м
[Cu Sc As op]
+7.0 +3.5 78 +5 +5 тепло 1021.8 1015.6
С 2 5000 м {дождь} 10/6 600 м
[Cu Sc As op]
+7.3 +4.2 81 +5 +5 тепло 1022.1 1015.9
С 3 5000 м {дождь} 10/10 600 м
[Cu Sc]
+8.1 -0.2 56 +6 +6 тепло 1022.2 1016.0 +10.0 8
В 2 9000 м ?/? +8.3 -0.2 55 +7 +7 тепло 1022.8 1016.6
С 3 15 км 8/8 1000 м
[Cu Sc]
+8.2 -2.2 48 +6 +6 тепло 1022.8 1016.6
СВ 2 15 км 8/8 1000 м
[Cu Sc]
+7.8 -2.2 49 +6 +6 тепло 1023.3 1017.1
В 4
{11}
20 км 4/4 1000 м
[Cu Sc]
+7.0 -3.3 48 +4 +4 по сезону 1023.8 1017.6
С 3
{13}
20 км 6/6 1000 м
[Cu Sc]
+6.5 -4.0 47 +4 +4 по сезону 1024.1 1017.9
С 6
{17}
20 км 6/6 1000 м
[Cu Sc]
+6.3 -5.3 43 +2 +2 по сезону 1024.3 1018.1
СВ 4 20 км 3/3 1000 м
[Cu med, cong]
+6.3 -6.1 41 +3 +3 по сезону 1024.6 1018.4
СВ 4
{21}
20 км ясно +6.0 -6.1 41 +3 +3 по сезону 1025.3 1019.0 +5.7
С 4
{14}
20 км ясно +6.4 -6.1 40 +3 +4 по сезону 1025.9 1019.7
СВ 4
{14}
20 км ясно +7.3 -6.1 38 +5 +6 тепло 1025.9 1019.7
С 4
{14}
20 км ясно +8.3 -5.7 37 +6 +8 тепло 1026.0 1019.8
СВ 4 20 км ясно +9.3 -5.3 35 +7 +10 тепло 1025.4 1019.2
В 4
{12}
20 км ясно +9.9 -5.7 33 +8 +10 тепло 1025.0 1018.8
С 2
{14}
20 км ясно +11.0 -5.3 31 +10 +14 тепло 1024.0 1017.9
З 1 20 км ясно +10.1 +5.3 72 +10 +11 тепло 1023.2 1017.0
В 3 20 км ясно +9.4 -4.8 36 +8 +8 тепло 1023.5 1017.3
В 3 20 км ясно +8.3 -4.8 39 +6 +6 тепло 1024.2 1018.0
В 2 20 км ясно +7.5 -4.8 41 +6 +6 тепло 1025.0 1018.8
СВ 2 20 км ясно +7.2 -5.3 41 +6 +6 тепло 1024.9 1018.7 +11.7
СЗ 2 20 км ясно +5.5 -4.0 50 +4 +4 по сезону 1025.2 1018.9
З 1 20 км ясно +3.1 -2.9 65 +2 +2 по сезону 1025.9 1019.6
С 1 20 км ясно +2.5 -2.2 71 +1 +1 по сезону 1026.8 1020.5
СЗ 1 20 км ясно +1.0 -2.9 75 -1 -1 по сезону 1028.5 1022.1
З 1 20 км ясно +0.3 -2.9 79 -2 -2 по сезону 1028.4 1022.0
СЗ 2 20 км ясно +0.9 -3.3 73 -2 -2 по сезону 1028.1 1021.7
З 1 20 км ясно -0.3 -2.9 83 -2 -2 по сезону 1028.3 1021.9
штиль 0 20 км 5/0
[Ac trans]
-0.5 -2.9 84 -2 -2 по сезону 1028.7 1022.3 -0.7
СЗ 1 20 км 4/0
[Ac trans]
+0.8 -2.9 76 -1 -1 по сезону 1028.9 1022.5
З 1 20 км 4/0
[Ac trans]
+3.5 -2.5 65 +2 +4 по сезону 1028.9 1022.6
З 1 20 км 3/0
[Ac trans]
+7.1 -2.9 49 +7 +9 тепло 1028.8 1022.6
СЗ 1 20 км 3/0
[Ac trans]
+9.2 -4.4 38 +9 +13 тепло 1028.2 1022.0
З 2 20 км ясно +10.5 -3.8 36 +10 +14 тепло 1027.6 1021.4
Ю 1 20 км ясно +11.4 -3.8 34 +12 +15 тепло 1027.4 1021.3
З 2 20 км ясно +12.5 -3.3 33 +12 +14 тепло 1027.3 1021.2
З 1 20 км ясно +11.2 -2.2 39 +12 +12 тепло 1027.3 1021.1
штиль 0 20 км ясно +9.5 +0.4 53 +9 +9 тепло 1027.0 1020.8
С 1 20 км ясно +7.6 +0.6 61 +7 +7 тепло 1026.1 1020.5
В 1 20 км ясно +6.7 +0.1 63 +6 +6 тепло 1027.0 1020.8
В 2 20 км ясно +6.3 +0.9 68 +4 +4 по сезону 1027.6 1021.3 +12.8
Местоположение метеостанции Подгорица-Град (Черногория): широта 42.43 долгота 19.28 высота над уровнем моря 50 м.
В архиве по умолчанию представлена погода в Подгорица-Граде за последнюю неделю. Архивные данные за месяц целиком и за предыдущие месяцы, начиная с января 2011 года, Вы можете получить, выбрав интересующий диапазон дат из раскрывающегося списка и нажав кнопку "Найти!".
*Определитесь, кто Вы:
Внимание! Время в таблицах - всемирное. Для получения местного времени необходимо прибавить поправку, которая равна 1 ч.
Смотрите также архив погоды в соседних городах и на ближайших метеорологических станциях:
Партнеры нашего сайта:      
Пояснения к столбцам:
  • Ветер - указаны скорость ветра в м/с - средняя за 10 мин, порывы в срок и между сроками (в фигурных скобках) и направление, откуда дует ветер: С - северный,
  • СВ - северо-восточный, В - восточный, ЮВ - юго-восточный, Ю - южный, ЮЗ - юго-западный, З - западный, СЗ - северо-западный.
  • Видимость - горизонтальная дальность видимости в метрах или километрах. При видимости от 1 до 10 км при отсутствии осадков обычно наблюдается дымка, при ухудшении видимости до 1 км и менее - туман. В сухую погоду видимость может ухудшаться дымом, пылью или мглою.
  • Явления - указаны атмосферные явления, наблюдавшиеся в срок или в последний час перед сроком; фигурными скобками обозначены явления, наблюдавшиеся между сроками (за 1-3 часа до срока); квадратными скобками обозначены град или гололедные отложения с указанием их диаметра в мм.
  • Облачность - указаны через наклонную черту общая и нижняя облачность в баллах и высота нижней границы облаков в метрах; квадратными скобками обозначены формы облаков: Ci - перистые, Cs - перисто-слоистые, Cc - перисто-кучевые, Ac - высококучевые, As - высокослоистые, Sc - слоисто-кучевые, Ns - слоисто-дождевые, Cu - кучевые, Cb - кучево-дождевые. Подробнее классификацию облаков см. в Атласе облаков (PDF).
  • T - Температура воздуха - температура, измеренная на высоте 2 м над землей.
  • Td - Температура точки росы - температура, при понижении до которой содержащийся в воздухе водяной пар достигнет насыщения.
  • f - Относительная влажность воздуха - влажноcть воздуха, измеренная на высоте 2 м над землей.
  • Te - Эффективная температура - температура, которую ощущает одетый по сезону человек в тени. Характеристика душности погоды. При расчете учитывается влияние влажности воздуха и скорости ветра на теплоощущения человека.
  • Tes - Эффективная температура на солнце - температура, которую ощущает человек, с поправкой на солнечный нагрев. Характеристика знойности погоды. Зависит от высоты солнца над горизонтом, облачности и скорости ветра. Ночью, в пасмурную погоду, а также при ветре 12 м/с и более поправка равна нулю.
  • P - Атмосферное давление - приведенное к уровню моря атмосферное давление.
  • Po - Атмосферное давление - измеренное на уровне метеостанции атмосферное давление.
  • Tmin - Минимальная температура - минимум температуры воздуха на высоте 2 м над землей.
  • Tmax - Максимальная температура - максимум температуры воздуха на высоте 2 м над землей.
  • R - Количество осадков - Количество выпавших осадков за период времени, мм. При наведении курсора мыши на число - период времени, за который выпало указанное количество осадков.
  • R24 - Количество осадков - Количество выпавших осадков за 24 часа, мм.
  • S - Снежный покров - Высота снежного покрова, см. При наведении курсора мыши на число - состояние снежного покрова и степень покрытия местности в баллах.